Wind_Speed
9 10 9 9 10 11 12 12 13 12 11 13 12 11 10 9 9 9 8 8 7 7 7 6 7 7 7 8 8 9 9 9 8 8 9 8 9 8 6 5 4 4 6 6 5 4 4 4 4 3 3 5 5 5 6 7 7 6 5 5 4 3 2 2 1 1 1 2 3 3 4 4 4 5 5 6 6 6 6 7 8 8 8 9 9
9 10 9 8 10 12 12 12 13 13 13 13 12 12 12 10 10 10 9 9 9 8 8 8 7 6 6 7 8 8 9 9 8 8 9 10 9 8 6 6 5 4 5 5 5 4 4 3 3 2 1 3 5 4 5 6 6 7 6 6 5 5 4 3 3 2 1 1 1 1 2 3 3 4 4 4 5 5 5 6 6 7 7 8 8
9 9 10 10 10 9 9 10 11 11 12 13 13 12 11 10 8 9 9 8 9 9 8 8 8 6 6 7 7 8 8 8 8 8 9 10 9 8 8 8 6 5 3 3 4 4 3 1 2 1 1 1 3 3 4 5 6 6 7 7 6 6 5 5 4 4 3 2 1 1 0 1 2 2 3 3 4 4 4 5 5 5 6 6 7
9 10 11 10 8 7 8 9 8 8 10 11 11 10 9 8 4 4 7 7 9 9 7 9 7 6 6 6 6 7 7 7 8 8 8 9 9 9 9 10 8 6 4 2 1 1 1 2 3 2 2 2 2 2 3 3 4 5 5 6 6 6 6 6 6 5 5 4 3 2 2 1 0 1 1 2 2 3 3 3 4 4 4 5 5
9 10 11 8 7 8 8 8 6 6 8 8 8 8 9 7 2 3 6 6 8 8 8 10 7 4 5 5 5 8 8 8 8 7 7 7 8 9 9 9 9 7 5 4 2 3 4 4 5 4 3 2 2 2 2 2 3 3 3 4 5 5 6 6 6 6 6 5 5 4 4 3 2 1 1 0 1 1 2 2 2 3 3 3 4
11 10 10 8 8 10 8 8 5 5 8 7 5 5 7 6 3 4 6 6 7 8 9 11 8 5 5 3 5 10 11 10 9 6 6 7 6 7 9 8 8 8 7 5 4 5 5 5 5 6 4 3 2 1 2 1 2 2 2 1 2 3 4 4 5 6 6 7 6 6 5 4 4 3 2 2 1 1 0 1 1 2 2 2 3
8 10 11 9 9 9 8 8 6 5 7 6 4 5 5 4 4 6 6 5 7 8 10 12 10 8 7 3 4 8 8 7 8 5 5 7 6 6 8 8 8 9 7 5 5 6 6 6 5 5 5 4 3 2 2 1 3 3 2 2 2 1 1 2 3 4 5 6 7 7 7 6 5 5 4 4 3 2 2 1 1 1 1 2 2
4 7 9 8 7 7 7 8 6 6 6 5 4 4 4 4 5 6 5 5 6 7 9 12 11 9 8 5 4 6 5 5 6 5 4 5 7 8 9 9 9 8 9 8 6 5 5 5 5 5 5 5 4 4 4 2 3 6 6 5 4 3 3 3 4 2 3 4 6 7 8 8 7 7 6 5 4 4 3 3 2 1 1 1 1
4 5 6 7 6 5 5 6 6 5 5 4 4 4 4 4 5 6 5 6 6 5 8 10 9 7 7 6 6 5 4 4 5 6 5 5 6 7 8 10 10 9 9 9 7 4 4 4 5 5 5 5 4 4 6 5 5 6 7 7 6 5 3 2 3 2 2 3 4 5 7 8 9 8 7 6 6 5 4 4 3 3 2 2 1
3 3 4 5 4 3 3 4 5 4 3 3 4 4 4 4 5 5 5 6 5 4 5 6 6 5 6 6 7 6 5 6 6 7 6 5 6 6 6 7 8 9 10 8 6 6 7 6 4 4 5 5 4 4 5 6 5 5 5 5 5 6 5 4 4 3 2 2 2 3 4 6 8 8 8 7 7 6 5 4 4 4 3 3 3
1 1 1 2 1 2 2 2 3 3 3 3 3 4 4 4 5 5 5 5 5 4 3 4 4 4 5 5 5 5 7 7 7 7 6 6 8 8 8 7 4 5 8 7 6 7 8 8 6 5 4 3 1 2 3 3 4 3 2 1 2 4 4 5 6 6 4 2 1 2 3 3 5 7 8 8 7 6 6 5 5 4 4 4 4
1 2 2 1 0 0 1 1 0 1 2 2 3 3 3 3 5 5 5 4 4 5 5 5 4 4 5 6 4 5 6 6 7 8 7 8 9 9 9 11 9 5 6 6 7 9 8 7 7 6 5 4 3 0 2 2 3 3 3 2 1 1 1 2 4 6 6 5 2 1 2 3 3 4 5 6 7 6 6 5 5 5 5 4 4
3 3 3 2 1 2 3 2 2 2 2 1 1 1 0 1 3 3 3 3 4 5 6 6 5 5 5 6 5 5 5 4 5 7 8 8 9 9 9 9 9 6 5 7 8 8 6 7 8 7 6 6 4 3 3 3 2 2 2 2 1 1 2 2 2 3 4 5 4 1 2 3 3 3 3 4 5 5 5 5 4 4 4 4 4
3 3 3 3 2 2 1 1 1 1 1 2 1 2 3 2 2 1 1 2 3 4 6 6 6 5 4 5 5 4 4 3 5 7 8 9 9 10 9 8 7 5 1 6 7 6 6 7 7 5 5 5 4 4 4 5 3 2 2 1 1 2 2 3 3 4 3 4 5 3 2 3 3 2 2 2 3 3 3 3 3 2 3 3 3
4 4 3 3 2 2 2 1 1 1 1 1 1 2 3 3 3 1 1 2 3 3 4 5 5 4 3 4 4 3 4 3 4 7 6 7 7 8 10 8 6 5 4 5 7 7 6 6 4 3 4 4 4 4 4 5 5 4 4 4 4 4 3 3 3 4 5 5 5 4 3 2 2 1 1 1 1 1 1 1 1 0 1 1 2
5 5 3 3 3 3 3 2 2 2 2 2 1 1 2 2 2 1 1 2 1 2 4 2 4 4 3 3 2 2 1 3 5 6 4 4 4 5 7 5 5 6 6 5 4 6 6 5 4 4 4 4 2 2 3 3 3 2 4 5 5 6 6 6 6 6 6 6 6 5 4 3 3 3 2 2 2 2 2 1 1 0 0 1 2
5 5 4 3 4 3 3 3 3 2 3 4 2 1 0 1 1 1 2 1 1 1 3 2 2 4 3 2 1 1 3 5 5 4 2 2 1 1 2 2 5 5 4 5 3 5 6 6 4 5 5 5 5 3 2 3 2 2 3 4 5 6 6 7 8 9 9 8 8 7 6 6 6 5 4 4 3 3 3 3 2 2 2 3 3
6 5 4 4 3 3 3 4 2 1 3 3 2 1 2 1 1 2 2 2 1 0 1 2 2 1 1 0 1 0 4 5 4 3 3 2 1 1 1 2 2 3 6 6 5 5 6 7 6 7 6 7 9 6 2 2 2 3 3 2 3 4 5 6 7 9 10 10 10 10 9 9 9 8 7 7 6 5 5 5 4 5 5 5 6
6 5 4 4 4 3 4 5 3 3 3 3 3 4 4 3 3 3 3 3 2 2 3 3 3 4 4 3 2 2 1 4 5 4 5 4 3 1 3 3 2 6 8 7 6 6 7 7 8 11 11 9 12 10 5 3 3 3 2 1 1 1 2 4 5 7 9 10 12 13 13 13 12 11 10 9 9 8 8 8 7 7 8 8 9
6 5 5 5 5 4 4 5 4 4 4 4 4 5 5 5 4 3 4 5 4 4 4 4 5 6 6 5 4 3 2 1 4 5 4 6 7 4 5 4 3 3 4 6 7 8 9 9 11 13 11 10 11 10 7 6 6 6 5 4 4 3 4 3 2 4 5 7 9 11 13 15 14 14 14 12 12 12 11 11 10 10 11 11 12
8 7 7 6 6 5 5 6 6 5 4 4 5 5 4 4 4 4 5 6 6 6 6 6 7 8 7 6 6 4 3 2 2 4 4 7 9 7 7 5 3 4 7 8 9 10 10 11 13 13 12 13 14 12 10 9 8 8 7 7 6 5 5 5 4 3 4 4 5 7 8 9 10 12 14 13 15 14 14 15 14 12 13 13 12
9 9 8 7 7 6 7 9 8 7 7 6 6 5 4 3 4 4 5 6 7 7 8 8 9 9 8 8 8 7 5 4 3 4 5 7 9 9 7 5 4 7 10 10 11 12 13 13 14 15 14 15 16 15 14 13 12 11 11 10 8 7 6 6 6 6 6 6 6 6 6 6 4 5 6 8 10 11 13 15 14 13 13 13 12
10 10 9 9 9 9 9 9 10 9 8 8 8 8 7 7 8 7 7 9 9 9 9 9 10 9 8 8 8 8 7 7 6 5 5 8 10 9 7 7 6 8 11 12 11 12 13 13 14 14 14 15 15 15 15 15 14 14 13 12 10 9 8 8 7 7 7 8 8 8 8 7 5 4 4 3 5 6 7 9 11 11 11 11 11
10 11 11 10 10 10 9 9 10 10 10 9 9 9 9 9 10 10 9 9 10 9 8 9 9 9 9 9 9 8 7 7 7 5 5 7 8 8 8 8 8 9 11 12 11 11 12 12 13 13 13 12 12 13 13 13 13 13 12 12 11 10 10 9 8 7 8 8 8 8 9 9 9 9 9 8 8 7 7 7 8 9 9 10 11
11 11 11 9 9 9 9 9 10 11 11 11 10 10 9 9 9 10 9 9 9 9 8 8 9 9 9 9 9 9 9 8 7 7 7 7 8 8 8 8 9 9 9 10 10 11 11 11 11 11 11 10 9 10 11 11 11 10 10 9 9 8 7 7 7 7 7 7 8 8 8 9 10 10 12 12 11 10 9 10 10 11 12 12 12
12 11 10 10 10 10 10 11 11 11 12 12 12 11 10 9 9 10 10 9 10 9 9 9 8 9 10 10 9 9 9 9 7 7 6 6 7 7 8 7 8 9 9 9 8 9 10 10 9 9 8 7 7 8 9 8 9 8 8 7 7 6 6 6 7 7 8 8 9 9 9 9 10 10 11 11 11 11 10 11 12 13 13 14 15
14 13 13 12 13 12 12 13 13 13 14 13 13 13 12 11 11 12 11 11 12 11 11 11 10 10 11 11 9 8 9 8 7 7 7 6 6 7 7 7 7 8 8 7 8 8 8 8 8 8 6 7 8 8 8 8 8 8 7 7 7 7 7 8 9 9 9 10 10 10 11 11 11 11 10 11 11 12 11 11 12 12 13 13 14
16 16 16 15 14 14 13 14 14 14 15 15 14 14 14 13 13 13 12 11 12 12 12 12 13 13 13 13 10 9 9 8 7 8 7 7 6 6 4 4 7 7 6 5 6 7 7 6 7 7 6 7 7 7 7 7 8 8 7 8 8 8 8 8 9 10 10 11 11 11 12 12 12 12 12 12 12 12 12 12 12 12 12 12 13
19 19 18 17 16 14 14 14 14 14 14 14 13 13 13 12 12 12 12 11 12 12 12 12 13 13 13 12 11 10 10 9 8 8 8 7 6 4 3 2 3 4 5 6 6 5 5 5 6 6 5 6 7 7 5 5 7 7 7 8 8 8 9 9 10 10 10 11 11 12 12 13 13 13 13 13 13 13 13 13 13 13 13 13 13
21 20 19 18 17 15 14 13 13 12 12 11 10 10 10 9 9 9 9 10 10 9 10 10 10 11 11 11 10 10 12 11 10 10 9 8 6 4 4 3 3 3 3 7 7 4 3 4 5 5 4 5 5 5 4 5 7 6 7 10 10 10 11 11 11 11 12 13 13 13 14 14 14 14 14 14 14 14 14 14 14 14 14 14 14
22 21 20 19 17 15 13 12 11 10 9 9 8 8 7 7 6 6 6 7 6 6 7 7 7 8 8 9 8 9 10 10 9 10 9 8 6 5 5 4 4 5 4 5 6 5 3 2 3 3 2 3 3 4 6 8 9 8 8 10 12 12 13 12 11 12 13 14 15 15 16 16 16 16 16 16 16 15 15 15 15 15 15 15 15
22 21 20 18 16 14 12 10 9 8 8 8 7 7 7 6 5 4 5 6 5 4 4 4 5 5 5 6 5 6 7 6 6 8 7 7 7 6 5 4 4 5 4 4 6 6 4 3 2 2 2 2 3 4 5 7 10 10 8 9 13 14 14 15 16 16 15 16 17 17 17 18 18 18 18 17 17 17 17 17 16 16 17 17 17
22 21 18 16 15 13 11 9 8 7 7 7 7 7 6 6 6 5 6 6 4 3 3 3 4 3 3 4 2 3 5 4 4 5 4 5 6 5 5 4 4 4 4 5 6 5 2 2 3 1 3 3 2 3 4 5 9 9 7 10 14 13 12 16 19 20 20 20 20 20 20 20 19 19 19 19 19 19 18 18 18 18 18 18 18
21 18 16 15 14 12 11 10 9 8 7 7 7 6 6 6 5 5 6 5 4 2 3 3 2 2 3 3 0 1 2 3 4 3 2 3 3 2 4 3 3 4 3 4 4 2 2 2 1 1 2 4 1 3 5 6 9 8 4 7 10 9 10 15 18 21 24 23 22 22 22 21 21 21 20 20 20 20 20 20 20 20 20 21 20
20 17 15 15 14 12 12 11 10 9 8 7 7 6 6 5 4 4 5 5 4 3 3 3 2 2 3 3 2 1 2 3 3 1 0 1 1 1 2 2 3 3 2 2 1 0 1 1 2 3 0 4 4 3 4 7 11 11 6 5 8 8 10 14 16 19 24 26 23 21 21 21 21 21 21 21 21 20 21 21 21 21 22 22 22
19 17 15 14 14 13 12 11 10 10 9 8 7 7 6 6 5 4 4 5 4 4 4 4 4 4 3 3 3 2 2 3 2 1 0 0 1 1 1 1 1 1 1 0 1 1 2 2 3 2 1 4 5 5 5 6 9 10 8 7 9 9 10 14 16 17 23 28 26 20 18 19 19 20 20 21 22 22 22 22 21 22 22 23 23
18 17 16 15 14 13 12 12 11 10 9 8 7 7 7 7 7 6 6 6 6 6 6 6 6 6 5 4 4 5 4 3 3 2 1 2 1 0 1 2 1 2 1 1 2 2 3 3 4 5 4 4 5 7 7 7 8 9 9 9 9 11 13 14 16 17 21 27 27 21 18 19 19 18 18 19 21 22 22 23 23 23 23 24 24
18 16 16 15 14 13 12 12 11 10 9 8 8 8 8 8 9 9 9 9 9 9 9 8 8 8 8 7 7 7 7 6 6 5 5 5 4 3 5 6 4 4 5 3 3 3 4 3 3 5 7 7 7 7 6 8 10 10 10 10 11 14 16 16 18 19 19 21 25 25 23 23 22 22 21 20 20 22 22 22 23 24 25 25 26
17 16 16 15 14 14 13 13 12 11 10 10 9 9 9 9 10 11 12 13 13 13 12 10 9 9 9 8 8 8 8 8 8 9 9 9 8 9 11 10 6 3 5 5 5 4 5 6 6 6 6 7 8 8 6 8 10 11 12 14 16 19 19 18 19 20 18 17 21 26 27 25 26 26 25 24 22 23 24 23 24 25 26 26 26
15 15 15 15 16 16 14 14 13 12 12 12 11 10 9 10 11 13 15 15 15 14 13 11 10 9 9 8 8 8 9 10 10 11 12 11 11 10 10 11 11 8 6 6 6 7 7 8 8 8 7 7 7 8 8 9 12 13 13 16 20 22 21 21 21 19 16 15 19 24 26 27 28 28 28 28 27 26 26 26 27 27 27 27 26
16 16 16 15 17 17 16 15 14 14 14 13 11 10 11 12 14 16 16 14 13 11 10 8 7 7 7 7 8 9 11 12 13 13 13 12 12 11 11 14 16 15 13 12 10 9 9 9 9 8 8 8 8 9 9 10 13 14 14 17 21 23 23 24 21 16 14 17 21 25 26 28 30 30 28 26 25 26 28 27 28 28 27 27 27
18 20 20 19 18 15 15 17 17 16 14 12 10 11 12 14 15 14 10 9 8 6 5 4 3 3 4 4 7 9 11 13 14 15 15 15 14 14 16 18 17 16 17 16 13 11 10 9 10 9 8 9 10 10 9 11 13 13 15 20 24 27 26 23 21 18 15 17 24 29 31 31 31 28 25 21 20 23 25 24 27 29 28 27 27
20 19 20 21 18 14 14 16 17 15 12 10 8 9 9 8 7 5 3 3 3 1 1 1 1 2 1 3 5 8 8 8 11 13 14 14 14 15 16 18 18 17 17 16 14 13 11 9 10 9 8 10 10 10 10 12 13 15 20 25 27 27 24 20 21 21 17 17 26 33 33 31 27 25 23 20 18 20 22 21 25 28 28 28 28
17 16 17 19 18 15 14 13 11 10 8 6 6 6 5 4 2 1 1 2 3 3 2 1 1 2 2 2 5 7 7 6 6 8 11 11 11 13 14 15 17 18 17 17 16 15 12 11 11 10 9 10 10 10 12 16 17 21 26 27 24 23 23 23 23 23 21 23 28 31 31 28 24 22 21 20 19 20 20 22 25 28 30 31 30
13 13 15 17 14 12 13 11 6 6 7 7 6 5 4 4 2 0 1 2 1 1 1 1 1 1 1 2 4 7 8 7 6 7 10 10 9 10 11 14 16 17 17 18 17 16 14 14 15 13 10 12 13 13 17 21 24 26 29 28 26 26 27 27 27 27 26 26 25 26 27 26 21 18 20 22 21 19 19 22 26 29 31 32 32
13 13 13 13 9 5 6 6 5 5 6 6 5 5 4 4 3 2 1 2 1 1 1 2 2 3 3 3 3 5 6 5 4 6 9 8 7 8 11 13 15 16 17 18 17 16 15 15 15 14 13 15 17 18 22 25 27 29 31 31 29 28 28 28 28 28 26 24 22 22 24 23 19 17 20 21 20 19 19 21 25 28 31 33 32
10 10 9 8 6 4 4 5 4 4 4 5 5 5 6 6 4 3 2 2 1 2 4 4 3 4 4 3 2 3 4 6 6 7 8 7 5 7 9 12 13 14 16 15 15 15 14 14 14 15 16 19 20 21 24 26 28 30 30 29 28 27 27 26 25 23 20 18 16 16 20 21 19 19 21 20 20 20 19 19 23 26 30 31 31
9 9 8 8 8 7 7 6 3 2 4 4 4 5 6 5 4 3 2 2 2 2 3 3 4 5 5 2 2 5 7 7 7 7 7 5 3 3 5 6 8 10 11 11 12 13 14 14 16 17 19 21 22 24 26 27 28 28 28 27 26 23 20 19 19 18 16 14 13 15 19 21 18 19 21 20 20 20 20 20 22 23 25 27 28
10 10 8 7 6 6 6 5 3 3 4 4 4 4 4 4 5 4 3 3 4 3 2 0 5 7 5 4 6 8 8 7 5 6 5 3 4 4 4 4 4 6 8 10 12 13 15 16 18 19 21 22 24 25 26 26 26 25 24 23 22 18 16 16 17 16 15 15 15 16 18 18 17 18 20 20 20 21 21 21 19 20 23 25 25
9 9 8 7 7 6 7 6 3 3 2 2 2 3 3 3 4 4 3 4 4 4 2 1 3 5 5 6 8 9 8 7 6 5 4 6 7 6 7 6 6 7 10 13 14 16 18 19 21 22 23 23 24 24 24 23 22 21 21 21 19 16 14 14 15 16 16 15 15 15 14 15 16 17 19 22 23 21 20 19 19 20 22 22 22
9 8 8 8 7 7 7 5 4 3 3 2 2 2 2 2 3 4 4 4 5 4 2 2 1 3 4 5 7 7 6 6 5 4 4 8 8 6 7 8 7 9 13 16 14 13 16 19 21 23 24 25 25 24 22 20 19 19 21 20 16 12 12 13 14 16 16 14 16 19 18 18 19 18 19 23 25 22 19 18 19 20 20 20 20
Wind_Direction
202 211 219 229 221 215 215 213 214 216 216 215 218 219 209 211 212 208 205 198 203 206 201 209 206 195 195 195 194 196 196 202 195 195 217 225 226 221 226 262 280 295 300 299 306 307 281 280 281 244 197 196 192 179 182 187 194 197 197 199 199 204 206 197 172 122 99 81 70 68 66 62 62 60 61 64 60 60 60 57 53 51 52 52 51
207 216 217 224 226 222 215 214 214 211 217 217 217 223 213 209 214 209 205 200 202 206 202 199 196 192 195 191 191 192 192 200 195 197 219 225 225 222 223 250 271 283 295 296 298 306 284 280 299 273 198 202 197 182 183 186 192 199 204 208 211 214 216 217 212 196 184 153 96 71 69 70 69 65 65 70 67 64 63 60 57 53 52 52 51
208 212 204 212 224 231 223 219 223 219 222 222 221 228 222 216 221 212 206 208 212 213 211 205 192 183 188 184 185 189 188 196 195 194 215 227 227 222 220 231 251 258 270 286 290 307 296 294 354 343 349 220 199 179 175 184 190 198 206 211 216 219 222 223 222 217 209 206 204 206 104 88 76 75 74 73 72 70 69 65 63 57 53 52 50
203 203 205 214 221 235 238 230 233 232 227 228 234 243 244 234 231 230 221 221 224 222 220 215 198 177 182 179 177 186 187 194 196 191 205 226 228 219 218 222 230 232 227 235 256 322 11 57 51 32 27 66 107 131 145 174 191 200 207 213 220 222 227 227 225 225 219 219 216 218 225 216 194 115 97 80 73 70 67 66 69 65 58 54 49
192 206 216 222 227 237 245 239 235 240 234 235 241 250 259 251 232 246 244 241 237 237 236 228 219 191 182 180 183 187 181 184 196 197 197 223 234 219 218 220 221 221 207 186 148 108 88 81 73 64 61 73 72 99 131 153 181 198 212 215 225 225 230 234 233 232 228 229 228 226 228 226 229 220 201 177 92 76 65 54 61 60 56 57 51
180 199 214 221 232 239 245 238 222 227 235 238 242 248 256 249 235 231 232 248 249 244 243 241 243 225 190 186 203 194 184 178 183 188 192 213 232 213 211 216 214 216 209 188 153 123 106 97 89 80 86 104 99 129 155 129 135 183 233 242 251 243 240 245 243 240 234 233 236 237 235 233 232 230 229 228 224 206 95 35 47 46 42 49 47
179 188 196 202 220 231 235 236 224 221 236 240 241 252 257 251 249 226 214 245 259 249 242 240 237 214 191 198 212 194 192 193 185 179 188 205 226 213 209 212 205 209 210 195 156 127 114 106 99 91 92 97 95 97 140 159 90 79 51 32 10 336 342 328 293 258 243 238 239 242 242 240 239 236 234 232 229 227 227 237 255 356 18 29 32
178 190 195 194 209 224 224 233 235 230 237 242 238 244 250 245 245 228 210 227 241 244 242 237 232 212 196 205 220 193 190 220 208 201 200 210 229 221 210 206 204 208 204 197 173 135 122 123 120 113 105 95 94 89 97 132 105 85 73 66 64 56 48 15 352 314 265 256 251 250 249 247 245 243 243 242 238 233 234 242 244 250 281 323 358
162 188 200 192 203 223 222 229 235 237 243 240 237 234 235 237 236 229 219 216 220 243 252 242 234 222 210 216 230 214 195 219 214 206 205 217 242 240 224 208 202 202 197 199 198 187 175 159 149 137 121 103 96 87 82 91 105 100 85 79 81 68 55 37 19 356 305 295 282 269 260 254 252 250 251 251 249 246 242 248 254 253 257 271 289
156 177 196 186 198 225 227 222 220 237 250 237 241 241 242 244 238 237 230 218 220 251 251 234 230 222 224 233 233 229 230 234 228 219 211 221 242 252 249 217 195 193 198 207 215 211 209 204 194 160 125 101 97 96 82 81 92 101 89 76 70 56 42 38 38 21 359 349 320 304 280 264 257 254 253 252 251 252 251 253 258 262 265 265 271
183 190 194 177 228 248 236 220 213 227 229 227 249 248 240 241 242 245 246 231 223 238 231 219 226 210 220 237 227 229 243 245 248 243 236 241 241 246 253 248 236 197 190 200 220 221 213 213 223 204 160 132 116 97 90 102 115 118 108 56 23 34 30 24 32 30 27 27 343 327 321 292 273 261 255 253 251 251 255 255 257 262 266 269 268
55 51 75 97 330 315 76 51 33 196 200 206 231 237 227 234 246 243 245 247 233 233 233 229 228 212 225 237 222 226 238 246 263 261 258 258 256 264 263 262 269 241 192 189 210 223 212 206 217 216 207 208 222 162 113 146 151 149 164 188 286 356 347 340 16 25 23 16 350 288 316 314 294 277 262 256 253 251 253 255 257 256 256 261 265
79 76 96 107 85 69 70 51 51 84 87 56 306 344 56 211 247 245 238 247 237 226 230 239 242 230 239 245 229 230 237 247 276 273 266 262 262 268 263 266 279 269 210 182 193 211 202 203 217 216 219 221 221 201 172 184 165 162 194 189 223 286 291 296 323 351 7 5 356 291 284 304 302 300 283 264 255 249 249 252 255 256 257 260 265
101 82 81 80 74 61 52 8 36 88 62 28 350 5 14 6 337 315 256 258 256 237 232 240 247 238 246 257 242 234 237 237 260 264 259 258 261 262 260 266 282 298 268 143 152 168 171 188 212 210 211 223 225 208 206 226 227 238 263 233 243 288 301 305 309 307 308 334 343 322 286 306 313 317 302 273 257 246 241 245 255 269 279 281 281
74 58 61 77 80 61 30 351 342 338 25 18 338 357 352 356 359 351 289 267 272 279 260 239 239 256 263 262 264 236 207 184 235 254 257 263 270 270 268 266 267 296 350 71 104 111 123 150 172 175 177 200 221 219 229 241 233 241 254 240 243 263 272 279 292 296 294 298 308 304 284 273 277 279 259 237 223 219 206 185 189 262 315 320 322
80 71 94 128 118 101 86 67 57 58 64 47 41 30 345 346 346 341 323 269 243 320 312 274 242 266 264 246 272 272 201 144 212 232 241 261 273 273 271 279 292 308 342 12 76 95 82 104 140 156 154 150 165 203 225 219 208 232 250 243 248 254 258 263 263 262 267 267 266 270 267 251 241 240 228 216 205 201 203 193 190 201 338 344 341
91 81 87 100 106 113 111 95 85 102 87 54 39 139 43 4 329 335 349 304 178 298 314 332 261 255 239 207 221 309 81 123 191 213 219 239 198 255 278 304 304 306 342 0 53 91 66 66 104 143 156 143 137 149 158 156 171 208 235 242 248 255 261 265 261 255 257 260 256 254 256 255 251 244 231 228 231 231 239 250 268 296 308 314 320
98 93 86 87 101 103 86 77 62 102 101 76 53 80 95 81 27 34 29 348 350 49 358 14 5 293 230 292 206 59 101 137 180 171 148 157 152 222 42 38 354 46 45 33 53 73 64 56 65 89 101 110 119 127 138 160 187 196 223 255 264 271 272 269 263 258 259 264 265 262 259 257 254 247 236 234 239 246 254 260 278 294 297 306 313
106 104 99 99 104 93 81 76 56 34 49 67 75 59 60 63 51 57 51 30 30 40 35 14 23 59 53 34 17 352 100 168 181 155 142 134 135 169 112 103 104 83 65 56 55 50 64 65 55 60 60 76 102 111 110 118 121 112 105 87 55 350 312 279 265 257 257 263 267 265 261 259 256 251 246 244 247 251 256 261 275 288 289 296 304
101 98 98 100 101 94 96 97 87 72 53 52 65 60 61 68 60 57 49 46 53 52 44 31 40 57 52 40 27 7 17 146 175 167 155 137 131 122 108 118 148 111 71 60 60 53 63 71 69 70 65 70 95 106 104 101 96 87 79 82 78 55 43 9 316 280 272 272 275 273 269 265 261 257 255 254 255 257 261 264 272 284 288 289 295
102 99 98 96 94 92 109 113 97 92 95 81 65 58 60 63 51 50 50 47 51 54 55 51 50 54 52 44 37 37 36 29 163 167 158 140 135 128 118 115 119 102 79 67 67 65 64 67 71 75 77 79 87 96 99 97 94 89 84 80 74 63 52 40 30 4 338 328 319 312 297 286 274 264 263 262 262 265 270 268 269 275 281 286 290
114 110 106 101 99 92 101 109 100 96 98 86 68 57 60 61 51 50 55 51 46 46 51 52 48 47 49 40 31 41 40 27 74 118 131 132 129 129 127 117 106 99 88 74 65 64 63 66 70 71 73 78 82 86 90 91 89 85 82 78 75 71 62 51 45 34 28 26 16 4 345 328 310 281 273 268 265 270 274 272 271 271 275 283 288
120 117 116 115 114 106 102 104 102 99 94 85 78 71 73 74 66 61 62 61 55 49 53 58 50 43 46 43 32 36 35 27 41 71 110 122 119 118 118 116 106 90 83 76 69 68 65 65 70 72 72 74 77 80 81 83 82 80 78 76 75 73 68 62 54 43 35 33 26 15 2 351 341 326 315 300 286 286 286 284 283 281 279 281 282
122 122 121 116 112 107 104 106 106 103 96 92 90 82 78 78 75 72 72 74 70 62 67 78 73 56 48 47 42 40 40 38 39 47 84 104 111 114 110 111 106 92 89 87 82 79 74 70 70 71 72 73 74 76 76 74 75 75 75 73 69 65 63 60 53 40 27 19 13 5 356 349 340 331 326 321 315 311 309 307 301 294 288 283 280
129 126 121 116 114 113 110 113 114 111 107 101 93 84 76 75 78 77 77 80 79 73 72 79 84 75 61 53 51 49 47 50 54 56 74 90 103 109 106 109 113 109 105 98 89 81 76 75 75 75 77 76 69 65 65 64 64 65 66 67 64 57 50 42 30 16 5 359 353 349 344 340 335 331 327 323 320 316 314 315 312 306 300 297 295
136 131 127 126 128 126 123 121 118 114 114 110 102 91 82 79 85 86 83 83 82 78 76 75 78 83 76 61 57 61 56 52 56 63 74 90 100 102 102 111 116 114 109 99 89 83 78 73 74 79 78 69 55 47 47 46 46 44 40 40 37 26 17 6 357 349 343 339 336 334 333 331 329 327 324 321 321 318 315 309 304 300 297 295 294
146 142 137 135 131 126 123 119 116 113 110 107 105 100 93 90 92 90 86 84 83 78 75 77 77 81 83 69 60 71 73 61 57 69 77 85 97 102 105 111 107 100 97 89 83 84 83 76 71 67 50 39 37 30 28 29 26 21 15 15 9 359 353 347 342 340 337 335 333 332 330 329 327 325 322 318 315 313 309 303 296 292 290 286 285
152 146 139 136 130 125 124 119 116 115 110 106 104 103 99 94 92 90 85 83 85 81 77 80 80 80 80 72 61 67 79 77 74 83 83 80 98 106 100 111 112 110 107 94 88 83 79 76 72 67 44 29 28 26 28 21 9 6 5 5 358 349 345 342 338 335 333 331 330 328 326 324 323 321 318 315 312 310 308 306 303 298 294 290 287
152 147 142 139 134 131 130 126 122 118 113 109 107 104 100 97 95 92 90 87 86 86 84 83 83 81 78 73 67 68 75 79 85 97 93 83 98 96 68 73 97 124 145 122 101 89 77 69 65 68 52 29 26 31 35 8 1 7 0 351 348 342 339 335 333 331 328 327 325 324 322 320 319 316 313 311 308 306 305 304 304 303 301 300 297
153 150 147 145 142 140 137 134 131 126 121 117 114 109 104 102 99 94 94 91 86 85 84 80 81 83 81 77 73 76 79 77 80 92 90 82 86 77 71 72 26 29 128 125 111 103 94 81 72 75 65 43 34 26 12 354 359 3 343 341 344 341 339 336 332 331 330 328 326 324 322 319 317 315 313 310 308 305 303 301 300 300 300 301 301
157 154 152 152 150 148 147 145 143 139 134 129 125 119 114 109 104 102 106 99 90 87 83 79 76 76 80 79 73 74 74 68 71 81 83 81 83 74 74 85 62 54 87 122 128 119 106 102 85 73 68 64 43 6 355 349 352 353 344 346 345 336 332 330 329 331 332 330 325 321 319 316 315 313 311 310 308 306 305 303 301 299 299 298 298
161 159 158 159 158 155 154 154 152 151 147 142 137 132 126 117 114 124 121 102 92 93 93 93 82 68 66 68 73 83 76 65 66 70 78 85 83 80 79 86 89 80 80 107 124 124 118 112 91 37 1 56 49 22 7 350 350 357 353 345 343 341 340 338 336 333 332 330 325 320 317 314 312 310 308 307 305 305 304 303 302 301 299 297 295
167 164 163 165 165 161 158 157 159 159 156 153 146 139 138 138 141 140 121 106 104 106 105 108 99 92 86 56 46 88 82 79 72 50 59 77 71 76 85 86 93 85 80 100 110 115 117 112 108 48 18 50 46 0 6 356 358 6 353 340 349 355 348 341 339 334 332 333 326 320 317 314 312 310 308 306 304 303 301 301 300 300 299 297 295
172 168 168 170 167 164 162 161 164 164 163 165 155 149 158 162 155 141 126 130 144 128 109 114 117 147 135 108 76 143 110 114 105 69 60 73 54 80 94 90 99 87 82 110 112 104 104 96 135 234 40 49 13 332 343 345 357 9 349 330 346 345 326 332 337 331 329 333 329 321 317 313 311 309 308 306 304 302 300 299 298 297 297 296 295
175 171 174 175 169 167 167 166 170 170 171 174 166 165 175 174 166 158 149 160 175 163 137 138 158 193 151 146 204 212 155 139 125 97 158 87 34 72 105 100 112 101 89 118 108 27 176 166 271 230 43 11 353 351 340 329 345 359 353 322 337 334 315 322 330 322 321 328 329 322 316 313 311 310 309 307 304 303 301 299 297 296 295 294 294
178 176 178 178 173 173 173 173 176 176 177 183 178 178 186 186 189 198 191 192 199 191 179 173 182 202 196 177 190 209 185 157 139 87 4 165 38 66 158 152 149 139 110 129 293 285 239 249 265 248 339 350 331 330 335 329 337 344 332 316 331 338 321 316 322 320 317 321 324 323 317 312 309 309 308 308 307 306 304 302 300 298 296 294 293
180 179 181 180 180 182 182 182 184 182 183 188 190 194 202 202 203 212 216 217 219 213 211 209 203 212 229 219 203 217 233 218 184 159 182 213 175 75 234 222 237 244 252 296 298 288 278 266 255 267 298 314 310 314 318 321 329 329 319 310 319 331 326 318 318 318 315 315 319 324 322 316 312 310 308 307 306 305 304 304 304 302 300 298 296
183 182 182 184 186 189 190 189 189 190 191 196 204 210 213 216 216 219 222 225 228 226 226 226 221 222 230 225 217 228 244 245 223 207 211 210 198 205 214 207 222 256 254 258 284 284 279 287 283 286 295 298 305 313 306 314 328 331 323 312 312 322 324 319 315 317 316 310 312 322 328 326 322 318 313 310 307 304 302 302 303 302 301 300 300
184 186 188 190 193 196 200 198 194 196 200 203 210 214 219 228 233 233 233 233 230 227 223 218 217 223 226 225 225 230 239 243 240 236 232 230 232 227 214 207 212 254 266 265 279 282 278 287 289 290 295 296 305 314 307 308 317 319 314 309 312 319 322 320 318 320 320 306 302 315 324 327 326 323 320 316 313 308 305 304 303 301 299 301 301
189 194 197 201 204 203 204 203 199 201 208 208 207 213 223 232 239 241 243 242 237 229 222 213 210 215 218 223 227 226 230 232 234 240 240 244 254 247 230 225 223 226 236 245 261 272 281 289 288 290 292 283 291 305 303 305 312 310 306 308 316 322 322 321 320 321 319 303 296 307 318 323 325 324 321 320 317 313 310 309 306 301 300 302 301
195 200 201 210 217 211 205 205 204 205 212 216 218 229 242 249 252 251 250 251 246 236 229 220 211 210 209 218 228 228 231 234 237 244 247 251 255 245 233 233 234 236 236 229 230 238 249 269 282 290 287 277 289 302 299 303 308 305 304 312 320 321 319 318 319 319 316 304 298 305 313 318 321 321 321 321 317 313 313 312 307 304 304 304 302
201 206 205 211 218 210 201 204 206 208 219 233 244 255 262 263 263 262 259 260 251 233 229 225 212 212 200 211 241 247 246 248 249 253 255 258 256 245 239 242 244 249 251 244 239 235 237 261 280 288 288 286 295 302 299 302 303 298 304 314 318 318 317 317 314 315 315 305 301 307 312 316 318 319 318 315 308 306 310 308 304 305 307 304 303
204 210 213 218 224 222 213 208 209 215 232 250 254 255 256 253 259 273 283 300 314 350 31 12 337 301 226 198 244 263 265 259 255 254 254 257 257 252 251 252 249 251 254 250 245 243 247 264 275 278 285 288 294 298 293 287 284 288 303 314 317 316 316 312 308 310 312 303 301 306 311 314 317 316 315 314 307 304 304 297 293 298 301 300 300
210 216 222 228 235 238 235 227 218 216 227 237 231 225 220 210 215 318 15 17 16 28 34 23 3 332 306 235 241 256 267 273 273 264 256 253 255 255 255 255 253 252 251 247 244 245 243 250 264 271 274 277 285 290 282 278 285 297 308 314 314 310 307 305 303 304 304 301 302 306 309 314 319 320 317 314 308 302 299 295 292 295 297 299 301
218 223 226 233 238 238 236 234 214 184 187 196 199 197 194 190 193 250 44 68 52 44 15 289 220 242 269 258 260 266 271 279 285 277 267 257 252 256 255 252 253 255 253 250 249 246 238 244 265 276 273 273 281 285 285 291 300 305 307 309 308 305 304 303 300 300 302 306 311 312 313 318 323 317 308 306 305 300 296 296 295 296 298 301 304
226 226 227 230 236 244 239 221 188 164 173 184 192 199 208 215 216 224 195 147 175 242 264 263 254 254 242 224 254 275 276 279 271 267 271 263 250 252 252 250 252 253 253 254 253 251 249 253 265 271 270 276 283 286 290 297 301 302 303 305 304 303 302 301 301 305 311 319 321 314 308 313 314 305 302 305 303 299 297 296 295 295 297 301 306
211 212 211 203 183 136 128 162 172 171 179 194 208 213 218 221 217 214 202 156 154 251 275 280 273 272 265 243 212 221 240 257 263 268 276 271 253 247 246 248 252 252 252 255 257 257 257 260 267 271 274 280 286 290 294 298 299 300 301 301 301 303 305 306 308 312 316 318 311 295 292 300 304 300 301 303 301 300 299 295 293 294 297 301 306
148 157 163 164 158 145 145 165 188 184 171 178 184 184 194 199 178 163 181 177 171 211 272 283 261 258 265 255 208 222 244 256 262 270 276 266 232 228 226 231 244 250 254 259 259 259 261 264 271 275 278 284 289 292 294 296 296 297 298 298 302 307 307 305 304 304 304 301 293 286 288 293 298 299 301 302 303 301 297 295 296 297 296 298 304
139 145 147 150 156 154 150 156 171 168 155 152 161 163 165 171 160 151 171 197 185 167 130 239 263 266 266 239 229 249 270 276 268 268 260 193 164 207 220 212 235 257 263 258 256 262 266 267 272 277 282 287 291 292 293 294 294 294 295 297 300 300 294 291 293 295 295 297 296 292 289 289 293 300 302 302 301 299 298 300 300 294 291 296 304
153 157 159 159 159 155 152 154 171 191 179 170 184 179 164 171 174 163 171 196 185 156 132 142 280 277 259 241 246 261 279 280 272 272 236 164 163 211 231 230 240 260 268 265 262 263 265 269 274 279 284 287 290 291 291 289 290 292 295 299 301 298 291 289 293 294 297 301 295 285 284 292 298 302 304 304 302 299 297 297 295 293 297 304 309
167 169 170 169 164 163 173 186 197 216 234 228 221 221 193 187 185 165 168 195 185 163 169 196 255 275 248 237 247 258 275 275 268 266 207 170 168 206 230 240 249 254 263 269 268 263 269 279 285 287 292 295 298 301 299 296 300 305 307 310 310 303 294 290 292 295 299 300 290 282 285 294 296 299 304 305 303 300 297 296 298 301 304 305 305
Height
1538 1538 1538 1538 1539 1540 1540 1541 1540 1541 1542 1542 1542 1541 1541 1542 1542 1543 1543 1543 1544 1545 1545 1546 1545 1545 1545 1545 1545 1545 1546 1547 1547 1548 1547 1549 1551 1551 1552 1553 1553 1553 1553 1554 1554 1553 1553 1553 1553 1553 1553 1554 1554 1555 1555 1556 1557 1557 1557 1558 1558 1558 1559 1559 1559 1559 1560 1560 1560 1560 1560 1560 1560 1560 1560 1560 1560 1560 1560 1560 1560 1561 1561 1561 1561
1537 1537 1537 1538 1539 1539 1540 1540 1540 1541 1541 1542 1542 1540 1540 1541 1541 1541 1542 1542 1544 1544 1544 1544 1544 1545 1545 1545 1545 1545 1546 1546 1547 1548 1547 1548 1549 1550 1551 1552 1553 1553 1553 1554 1554 1553 1553 1553 1553 1553 1553 1553 1554 1554 1555 1556 1556 1557 1557 1558 1558 1558 1559 1559 1559 1560 1560 1560 1560 1560 1560 1560 1560 1561 1561 1561 1561 1560 1560 1560 1560 1561 1561 1561 1561
1536 1536 1537 1537 1538 1538 1538 1539 1539 1539 1540 1540 1540 1539 1539 1540 1540 1542 1543 1544 1544 1544 1544 1544 1543 1544 1545 1545 1545 1545 1545 1546 1546 1548 1547 1546 1548 1549 1550 1551 1552 1552 1553 1553 1553 1553 1553 1553 1553 1553 1553 1554 1554 1554 1555 1556 1556 1557 1557 1557 1558 1558 1559 1559 1559 1560 1560 1560 1560 1561 1561 1561 1561 1561 1561 1561 1561 1561 1561 1561 1561 1561 1561 1561 1561
1536 1535 1536 1537 1537 1537 1537 1538 1538 1539 1540 1540 1540 1541 1541 1541 1542 1543 1544 1544 1545 1545 1545 1545 1542 1543 1545 1544 1545 1545 1546 1546 1546 1548 1547 1545 1547 1548 1549 1550 1551 1551 1552 1552 1553 1553 1553 1553 1554 1554 1554 1554 1554 1555 1555 1556 1556 1556 1557 1557 1558 1558 1558 1559 1559 1560 1560 1560 1560 1561 1561 1561 1561 1561 1561 1561 1561 1561 1561 1561 1561 1561 1561 1561 1561
1537 1535 1535 1535 1535 1535 1536 1537 1539 1540 1540 1540 1542 1543 1542 1542 1543 1543 1543 1544 1545 1546 1546 1547 1545 1543 1545 1545 1545 1545 1545 1545 1545 1547 1547 1546 1546 1547 1548 1549 1550 1550 1551 1552 1553 1553 1554 1554 1554 1554 1555 1555 1555 1555 1555 1556 1556 1556 1557 1557 1558 1558 1558 1559 1559 1559 1560 1560 1560 1561 1561 1561 1561 1561 1561 1561 1562 1562 1562 1562 1562 1562 1562 1562 1562
1537 1536 1535 1535 1534 1534 1534 1536 1538 1540 1539 1540 1541 1541 1541 1541 1542 1541 1542 1544 1546 1546 1547 1549 1547 1544 1544 1544 1544 1544 1544 1544 1544 1546 1547 1546 1545 1546 1547 1547 1548 1549 1550 1552 1553 1554 1554 1555 1555 1555 1555 1555 1556 1556 1556 1556 1556 1557 1557 1557 1558 1558 1559 1559 1559 1559 1560 1560 1560 1561 1561 1561 1561 1561 1561 1561 1562 1562 1562 1562 1562 1562 1562 1562 1562
1536 1536 1536 1536 1535 1534 1534 1535 1537 1539 1538 1539 1540 1540 1540 1540 1540 1540 1541 1544 1546 1547 1549 1550 1548 1546 1544 1544 1544 1544 1544 1544 1544 1545 1546 1545 1544 1545 1546 1547 1547 1549 1550 1552 1553 1554 1555 1555 1555 1556 1556 1556 1556 1556 1556 1556 1557 1557 1558 1558 1558 1559 1559 1559 1559 1559 1559 1560 1560 1560 1561 1561 1561 1561 1561 1561 1561 1562 1562 1562 1562 1563 1563 1563 1563
1534 1535 1535 1535 1535 1535 1535 1535 1537 1538 1538 1539 1539 1539 1539 1539 1539 1539 1541 1544 1546 1547 1549 1550 1549 1546 1545 1544 1544 1544 1545 1545 1544 1544 1545 1545 1544 1544 1546 1547 1547 1549 1550 1551 1553 1554 1555 1556 1555 1555 1556 1556 1556 1556 1556 1557 1557 1558 1558 1558 1558 1559 1559 1559 1559 1559 1559 1560 1560 1560 1560 1561 1561 1561 1561 1561 1561 1561 1562 1562 1562 1563 1563 1563 1563
1534 1534 1534 1535 1535 1534 1535 1536 1536 1537 1537 1538 1538 1538 1538 1538 1538 1539 1541 1544 1545 1547 1547 1548 1547 1546 1545 1545 1544 1544 1544 1544 1544 1544 1544 1544 1544 1544 1545 1547 1547 1548 1549 1550 1552 1553 1554 1555 1555 1555 1555 1556 1556 1556 1556 1556 1557 1558 1558 1558 1559 1559 1559 1559 1559 1559 1560 1560 1560 1560 1560 1560 1560 1560 1560 1560 1561 1561 1561 1562 1562 1562 1563 1563 1563
1533 1534 1534 1534 1534 1534 1535 1535 1536 1536 1537 1537 1537 1537 1538 1538 1537 1538 1541 1543 1544 1545 1546 1546 1547 1547 1546 1545 1544 1544 1544 1544 1543 1543 1543 1543 1544 1544 1544 1545 1546 1547 1548 1549 1550 1552 1552 1553 1554 1555 1556 1556 1557 1556 1556 1557 1557 1558 1558 1559 1559 1559 1560 1560 1560 1560 1560 1560 1560 1560 1560 1560 1560 1560 1560 1560 1561 1561 1561 1562 1562 1562 1562 1563 1563
1533 1533 1533 1533 1533 1533 1534 1535 1535 1535 1536 1536 1536 1537 1537 1538 1537 1538 1540 1541 1543 1544 1544 1545 1546 1547 1546 1545 1544 1544 1544 1543 1543 1542 1542 1542 1543 1543 1544 1545 1546 1547 1550 1551 1550 1550 1551 1552 1554 1555 1556 1556 1557 1557 1557 1557 1557 1557 1558 1559 1559 1560 1560 1561 1561 1561 1560 1560 1560 1560 1560 1560 1560 1560 1560 1560 1560 1561 1561 1561 1562 1562 1562 1563 1563
1532 1533 1533 1533 1533 1533 1534 1534 1535 1535 1535 1535 1536 1536 1537 1537 1537 1538 1539 1540 1541 1542 1543 1544 1545 1545 1545 1545 1544 1544 1544 1543 1543 1543 1542 1542 1542 1543 1543 1544 1545 1546 1549 1551 1550 1549 1551 1552 1553 1554 1555 1556 1557 1557 1557 1556 1557 1557 1558 1558 1559 1560 1560 1561 1561 1561 1561 1561 1561 1561 1561 1560 1560 1560 1560 1560 1561 1561 1561 1561 1561 1561 1562 1562 1562
1533 1533 1533 1533 1533 1533 1534 1534 1534 1535 1535 1535 1536 1536 1536 1536 1537 1537 1538 1539 1540 1541 1542 1543 1543 1544 1544 1545 1544 1544 1544 1544 1544 1544 1543 1543 1542 1542 1543 1543 1545 1546 1548 1550 1550 1550 1552 1553 1554 1554 1555 1556 1556 1557 1556 1556 1557 1557 1558 1558 1559 1559 1560 1560 1561 1561 1562 1562 1561 1561 1561 1561 1561 1561 1561 1561 1561 1561 1561 1561 1561 1561 1561 1561 1562
1533 1533 1532 1533 1533 1533 1534 1534 1535 1535 1536 1536 1536 1536 1536 1536 1537 1537 1538 1538 1539 1540 1541 1541 1542 1542 1543 1544 1544 1544 1544 1544 1545 1544 1543 1542 1542 1542 1543 1544 1545 1547 1549 1550 1551 1552 1553 1553 1554 1555 1555 1556 1556 1556 1556 1556 1557 1557 1558 1559 1559 1559 1559 1560 1560 1561 1562 1562 1562 1561 1561 1561 1561 1561 1561 1561 1561 1561 1561 1561 1561 1561 1561 1561 1561
1533 1533 1533 1533 1533 1533 1534 1535 1535 1535 1536 1536 1536 1536 1536 1537 1537 1537 1538 1538 1539 1539 1540 1540 1541 1541 1542 1543 1543 1543 1543 1544 1545 1544 1542 1542 1542 1542 1544 1544 1545 1547 1549 1551 1552 1554 1554 1554 1554 1555 1556 1556 1556 1556 1556 1556 1557 1557 1558 1558 1559 1559 1560 1560 1560 1561 1561 1562 1562 1562 1562 1562 1561 1561 1561 1561 1562 1562 1562 1561 1561 1561 1561 1561 1562
1535 1535 1534 1533 1533 1533 1534 1534 1535 1535 1535 1536 1536 1536 1537 1537 1537 1537 1538 1538 1538 1539 1539 1540 1540 1540 1541 1541 1542 1543 1543 1544 1544 1543 1542 1543 1543 1544 1545 1545 1546 1548 1550 1552 1553 1554 1555 1555 1555 1555 1555 1555 1556 1557 1556 1557 1557 1557 1558 1558 1558 1559 1559 1559 1559 1560 1561 1561 1561 1561 1561 1561 1561 1561 1561 1562 1562 1562 1562 1562 1562 1562 1562 1562 1562
1536 1535 1534 1534 1533 1534 1534 1534 1534 1535 1535 1536 1536 1536 1537 1537 1537 1537 1538 1538 1538 1538 1538 1539 1540 1540 1540 1541 1541 1542 1543 1543 1543 1543 1543 1544 1544 1545 1546 1547 1547 1549 1550 1552 1553 1553 1554 1555 1556 1556 1555 1556 1557 1557 1556 1557 1558 1558 1557 1557 1557 1558 1558 1558 1559 1559 1560 1561 1561 1561 1561 1561 1561 1561 1562 1562 1562 1562 1562 1562 1562 1562 1562 1562 1562
1536 1536 1536 1535 1535 1535 1535 1535 1535 1535 1535 1535 1535 1535 1536 1536 1536 1537 1537 1537 1537 1538 1538 1538 1539 1539 1540 1540 1541 1542 1543 1543 1543 1543 1544 1545 1546 1546 1547 1548 1548 1549 1550 1551 1552 1552 1553 1554 1555 1556 1556 1557 1557 1557 1556 1556 1557 1557 1557 1557 1557 1557 1557 1558 1558 1559 1559 1560 1560 1560 1561 1561 1561 1561 1561 1562 1562 1562 1562 1562 1563 1562 1562 1562 1562
1536 1537 1536 1536 1536 1536 1536 1537 1537 1537 1536 1536 1535 1536 1536 1536 1536 1536 1537 1537 1537 1537 1538 1538 1538 1539 1539 1540 1541 1542 1542 1543 1544 1545 1546 1547 1547 1548 1548 1549 1549 1551 1551 1552 1552 1552 1553 1554 1554 1555 1556 1556 1557 1557 1556 1555 1555 1556 1556 1557 1557 1557 1557 1557 1557 1558 1558 1559 1559 1559 1560 1560 1561 1561 1561 1561 1562 1562 1562 1562 1562 1562 1562 1562 1562
1537 1537 1537 1537 1537 1538 1538 1538 1539 1539 1538 1537 1536 1536 1536 1536 1536 1536 1536 1537 1537 1537 1538 1538 1539 1539 1540 1540 1541 1541 1542 1543 1543 1545 1546 1547 1548 1549 1550 1550 1551 1551 1552 1552 1552 1552 1553 1553 1554 1555 1556 1556 1556 1557 1556 1555 1556 1556 1556 1556 1557 1557 1557 1557 1557 1557 1558 1558 1558 1558 1559 1559 1560 1560 1560 1561 1562 1562 1562 1562 1561 1561 1561 1561 1561
1538 1538 1539 1539 1539 1539 1539 1539 1540 1540 1540 1539 1538 1537 1537 1537 1536 1536 1537 1537 1537 1537 1538 1539 1539 1540 1541 1541 1542 1542 1543 1544 1544 1545 1546 1547 1548 1550 1550 1551 1551 1552 1552 1552 1552 1553 1553 1554 1554 1555 1555 1555 1556 1556 1556 1556 1556 1556 1556 1556 1557 1557 1557 1557 1557 1558 1558 1558 1558 1558 1558 1558 1559 1558 1559 1560 1561 1561 1561 1561 1560 1560 1560 1560 1561
1538 1539 1539 1540 1540 1540 1540 1540 1540 1540 1540 1540 1539 1538 1538 1537 1537 1537 1537 1537 1538 1538 1539 1539 1540 1541 1542 1543 1543 1544 1544 1545 1545 1546 1547 1547 1549 1550 1551 1552 1552 1552 1553 1553 1553 1554 1554 1554 1555 1555 1555 1555 1556 1556 1557 1557 1557 1556 1556 1557 1557 1557 1558 1558 1558 1558 1558 1558 1558 1558 1558 1558 1558 1557 1558 1559 1559 1560 1560 1559 1558 1558 1558 1559 1559
1539 1539 1540 1540 1540 1541 1541 1541 1541 1541 1541 1541 1540 1540 1539 1539 1539 1538 1538 1539 1539 1539 1540 1541 1542 1543 1543 1544 1545 1545 1545 1546 1546 1547 1547 1548 1549 1551 1552 1552 1553 1553 1553 1554 1555 1556 1556 1556 1555 1556 1556 1556 1556 1557 1557 1557 1557 1557 1557 1557 1557 1558 1558 1558 1558 1558 1559 1559 1559 1559 1558 1558 1558 1557 1557 1557 1558 1558 1558 1558 1558 1557 1556 1557 1558
1540 1540 1541 1541 1541 1542 1542 1542 1541 1541 1542 1542 1542 1541 1541 1540 1540 1540 1540 1540 1540 1541 1541 1541 1543 1544 1544 1545 1546 1546 1546 1547 1547 1547 1548 1549 1550 1551 1552 1553 1554 1554 1555 1555 1557 1557 1557 1558 1557 1557 1557 1557 1557 1557 1557 1558 1558 1558 1558 1558 1558 1558 1559 1559 1559 1559 1559 1559 1559 1559 1558 1558 1557 1557 1556 1556 1557 1557 1557 1557 1557 1557 1556 1556 1556
1541 1541 1542 1542 1543 1543 1543 1542 1542 1542 1542 1542 1542 1542 1542 1542 1541 1541 1541 1541 1541 1542 1542 1543 1543 1544 1545 1545 1546 1547 1547 1547 1548 1548 1549 1550 1551 1552 1553 1554 1554 1555 1556 1557 1557 1558 1558 1559 1559 1559 1559 1559 1558 1558 1558 1558 1558 1559 1559 1559 1559 1559 1559 1559 1559 1560 1559 1559 1559 1559 1558 1558 1557 1556 1556 1555 1556 1556 1556 1556 1557 1556 1556 1555 1555
1541 1542 1542 1543 1543 1543 1543 1543 1543 1543 1543 1543 1543 1543 1544 1544 1543 1543 1543 1543 1543 1543 1544 1544 1544 1545 1545 1546 1546 1547 1547 1548 1549 1550 1550 1551 1551 1552 1553 1554 1554 1555 1556 1557 1558 1558 1559 1559 1560 1559 1559 1559 1558 1558 1558 1559 1559 1559 1559 1559 1559 1560 1560 1560 1559 1559 1559 1559 1558 1558 1557 1557 1556 1556 1555 1555 1555 1555 1555 1555 1555 1555 1555 1554 1554
1541 1542 1542 1543 1544 1544 1544 1544 1544 1544 1544 1544 1544 1544 1545 1545 1544 1544 1544 1544 1544 1545 1545 1545 1545 1546 1546 1547 1547 1547 1548 1549 1549 1550 1551 1552 1552 1553 1553 1554 1554 1555 1556 1558 1558 1559 1559 1560 1560 1560 1559 1558 1559 1559 1559 1559 1559 1559 1559 1559 1559 1559 1559 1559 1559 1559 1558 1558 1557 1557 1556 1556 1555 1555 1555 1554 1554 1554 1554 1554 1554 1553 1553 1553 1553
1540 1541 1543 1543 1544 1545 1545 1545 1545 1545 1545 1545 1545 1545 1545 1546 1546 1546 1546 1546 1546 1546 1547 1547 1547 1547 1547 1548 1549 1549 1549 1549 1550 1550 1551 1552 1553 1554 1554 1554 1555 1556 1557 1558 1559 1560 1560 1560 1560 1560 1559 1559 1559 1559 1559 1559 1559 1559 1559 1559 1559 1559 1558 1558 1558 1558 1557 1557 1556 1556 1555 1555 1554 1554 1554 1553 1553 1553 1552 1552 1552 1552 1552 1551 1551
1540 1541 1543 1544 1545 1545 1546 1546 1546 1546 1546 1546 1546 1547 1547 1547 1547 1547 1547 1548 1548 1548 1548 1548 1548 1548 1549 1550 1550 1550 1550 1550 1551 1551 1551 1553 1554 1554 1555 1554 1554 1555 1557 1558 1560 1561 1561 1561 1561 1560 1560 1559 1559 1559 1560 1560 1559 1559 1559 1558 1558 1558 1558 1558 1557 1557 1557 1556 1556 1555 1554 1554 1553 1553 1553 1552 1552 1552 1551 1551 1550 1550 1550 1550 1550
1540 1541 1543 1544 1545 1545 1546 1546 1547 1547 1547 1547 1548 1548 1548 1548 1548 1549 1549 1549 1549 1549 1550 1550 1550 1550 1550 1551 1551 1552 1552 1552 1552 1552 1552 1553 1554 1555 1555 1555 1555 1555 1556 1557 1559 1561 1561 1561 1561 1561 1561 1560 1560 1560 1559 1559 1559 1559 1559 1558 1558 1557 1557 1557 1557 1556 1556 1555 1554 1554 1553 1553 1552 1552 1551 1551 1551 1550 1550 1549 1549 1549 1548 1548 1548
1540 1541 1543 1544 1545 1545 1546 1547 1547 1548 1548 1548 1549 1549 1549 1550 1550 1550 1550 1550 1551 1551 1551 1551 1551 1552 1552 1552 1553 1553 1553 1553 1553 1553 1554 1554 1555 1556 1556 1556 1556 1556 1556 1558 1559 1560 1561 1561 1561 1561 1561 1561 1561 1560 1559 1559 1559 1559 1558 1558 1557 1557 1557 1556 1556 1555 1555 1554 1554 1553 1552 1551 1551 1550 1550 1549 1549 1548 1548 1547 1547 1547 1546 1546 1546
1540 1541 1543 1543 1545 1545 1546 1547 1548 1548 1549 1549 1550 1550 1550 1551 1551 1551 1551 1551 1552 1552 1552 1552 1553 1553 1553 1553 1554 1554 1554 1555 1555 1555 1555 1555 1556 1556 1557 1557 1557 1557 1558 1558 1559 1560 1561 1561 1561 1561 1561 1561 1561 1561 1560 1559 1559 1558 1558 1558 1557 1556 1555 1555 1554 1554 1554 1553 1552 1552 1551 1550 1549 1548 1548 1547 1547 1546 1546 1545 1545 1545 1544 1544 1544
1540 1541 1542 1543 1544 1545 1546 1547 1548 1549 1549 1550 1550 1551 1551 1551 1552 1552 1552 1553 1553 1553 1553 1553 1554 1554 1555 1555 1555 1554 1555 1556 1556 1556 1556 1556 1557 1557 1557 1558 1558 1558 1559 1559 1560 1560 1560 1561 1561 1561 1561 1561 1562 1562 1561 1560 1559 1559 1559 1558 1557 1556 1555 1554 1553 1552 1553 1552 1551 1550 1549 1548 1547 1547 1546 1545 1545 1544 1544 1543 1543 1542 1542 1542 1541
1539 1541 1543 1543 1544 1545 1546 1547 1548 1549 1549 1550 1551 1551 1552 1552 1552 1552 1553 1553 1554 1553 1553 1554 1554 1554 1555 1556 1556 1555 1555 1556 1556 1557 1557 1557 1558 1558 1558 1559 1559 1559 1560 1560 1561 1561 1561 1561 1562 1561 1561 1561 1562 1562 1561 1560 1560 1560 1560 1559 1558 1558 1557 1555 1553 1551 1551 1551 1550 1548 1547 1546 1545 1545 1544 1543 1543 1542 1542 1541 1541 1540 1540 1539 1539
1539 1541 1542 1543 1544 1545 1546 1547 1548 1549 1550 1550 1550 1551 1552 1552 1552 1552 1553 1553 1553 1553 1553 1554 1555 1555 1555 1556 1556 1555 1555 1556 1556 1557 1557 1558 1559 1559 1559 1560 1560 1560 1560 1561 1561 1561 1562 1562 1562 1562 1561 1561 1562 1563 1562 1561 1560 1560 1561 1560 1559 1558 1557 1555 1554 1552 1549 1549 1548 1547 1546 1544 1543 1542 1542 1541 1540 1540 1539 1539 1538 1538 1537 1537 1536
1538 1540 1542 1543 1544 1545 1546 1547 1548 1548 1549 1550 1550 1551 1552 1552 1552 1553 1553 1553 1553 1553 1553 1554 1555 1555 1555 1555 1556 1556 1556 1556 1556 1557 1558 1558 1559 1560 1560 1560 1560 1560 1560 1561 1561 1562 1562 1562 1562 1562 1562 1562 1562 1563 1562 1562 1562 1561 1562 1561 1559 1559 1557 1555 1554 1552 1549 1547 1546 1545 1544 1543 1542 1541 1540 1539 1538 1537 1537 1536 1536 1535 1535 1534 1533
1537 1539 1541 1542 1544 1545 1545 1546 1547 1547 1548 1549 1550 1551 1551 1551 1552 1552 1552 1552 1552 1552 1553 1553 1554 1554 1554 1555 1555 1556 1556 1556 1556 1557 1558 1558 1559 1560 1560 1561 1561 1561 1561 1561 1562 1562 1562 1562 1562 1561 1562 1562 1562 1562 1562 1562 1561 1561 1561 1560 1559 1558 1557 1555 1553 1552 1549 1545 1543 1543 1542 1541 1540 1539 1539 1538 1536 1535 1535 1534 1533 1532 1532 1531 1531
1536 1538 1540 1541 1543 1544 1545 1545 1546 1546 1547 1548 1549 1549 1550 1550 1551 1551 1550 1550 1550 1550 1550 1551 1552 1552 1553 1553 1554 1555 1555 1555 1556 1557 1557 1557 1558 1559 1559 1560 1560 1560 1560 1561 1561 1562 1562 1562 1562 1562 1561 1561 1562 1562 1562 1561 1561 1560 1560 1559 1557 1556 1555 1553 1552 1550 1548 1545 1541 1540 1540 1539 1538 1537 1536 1536 1535 1534 1533 1532 1531 1530 1529 1528 1528
1535 1537 1539 1540 1541 1542 1543 1544 1544 1545 1545 1546 1547 1547 1548 1549 1549 1548 1548 1547 1546 1546 1547 1548 1549 1550 1551 1552 1553 1554 1554 1554 1555 1555 1556 1556 1557 1557 1558 1558 1559 1560 1560 1561 1561 1562 1562 1562 1562 1562 1561 1561 1560 1560 1561 1561 1560 1560 1559 1557 1555 1554 1553 1551 1550 1548 1546 1544 1541 1539 1538 1537 1536 1535 1533 1533 1532 1531 1530 1529 1528 1527 1526 1526 1525
1535 1536 1538 1539 1539 1540 1541 1541 1542 1542 1542 1543 1544 1545 1546 1547 1546 1546 1545 1544 1544 1544 1544 1545 1546 1546 1548 1550 1551 1552 1553 1553 1554 1554 1554 1555 1556 1556 1557 1557 1558 1558 1559 1560 1560 1561 1561 1561 1561 1561 1561 1561 1560 1560 1560 1559 1559 1559 1557 1555 1553 1552 1551 1549 1548 1547 1545 1544 1541 1538 1537 1536 1535 1533 1531 1530 1529 1528 1527 1526 1525 1524 1523 1523 1522
1533 1535 1536 1537 1536 1537 1538 1539 1539 1539 1539 1540 1542 1544 1544 1544 1544 1544 1543 1543 1544 1545 1544 1544 1544 1543 1545 1548 1549 1550 1551 1552 1552 1553 1553 1554 1554 1555 1556 1556 1556 1556 1557 1557 1558 1559 1559 1560 1560 1560 1560 1560 1560 1559 1558 1558 1558 1557 1556 1554 1552 1550 1549 1547 1546 1546 1544 1542 1539 1537 1536 1534 1533 1532 1530 1529 1527 1526 1525 1523 1522 1521 1520 1520 1518
1531 1532 1533 1533 1534 1535 1535 1535 1535 1536 1537 1539 1541 1542 1542 1542 1542 1543 1543 1543 1544 1544 1543 1542 1542 1543 1544 1546 1548 1548 1549 1550 1551 1551 1552 1552 1553 1553 1554 1554 1554 1555 1555 1556 1557 1558 1558 1559 1559 1559 1559 1559 1558 1558 1557 1557 1557 1555 1554 1552 1550 1549 1547 1546 1544 1544 1543 1540 1537 1535 1534 1533 1531 1529 1528 1528 1526 1524 1523 1521 1519 1518 1517 1517 1515
1529 1531 1532 1533 1534 1535 1534 1532 1532 1534 1537 1540 1540 1541 1541 1541 1541 1542 1543 1543 1543 1543 1542 1541 1542 1543 1544 1546 1547 1547 1548 1549 1549 1550 1550 1550 1551 1551 1552 1553 1553 1554 1554 1555 1556 1557 1557 1558 1558 1558 1558 1557 1557 1556 1556 1556 1555 1553 1552 1550 1549 1547 1546 1544 1542 1541 1541 1539 1535 1532 1531 1530 1529 1527 1526 1526 1525 1523 1522 1520 1517 1516 1515 1514 1513
1529 1530 1531 1532 1533 1534 1534 1533 1533 1534 1537 1539 1539 1539 1540 1540 1541 1541 1542 1542 1542 1542 1542 1542 1543 1544 1545 1546 1547 1547 1547 1548 1548 1548 1548 1549 1549 1549 1550 1551 1551 1552 1553 1554 1554 1555 1555 1556 1556 1556 1556 1556 1556 1555 1554 1553 1552 1551 1549 1549 1547 1546 1544 1543 1541 1539 1538 1537 1534 1530 1528 1527 1527 1525 1523 1523 1522 1521 1520 1518 1515 1514 1512 1511 1510
1528 1529 1530 1531 1531 1532 1533 1533 1534 1535 1537 1537 1538 1539 1540 1540 1541 1541 1541 1542 1542 1542 1542 1543 1544 1545 1546 1547 1547 1547 1546 1547 1547 1547 1547 1547 1547 1548 1548 1549 1549 1550 1551 1551 1552 1553 1553 1554 1554 1554 1554 1554 1554 1553 1551 1550 1550 1548 1547 1546 1545 1544 1542 1541 1539 1537 1536 1534 1531 1528 1525 1524 1524 1523 1522 1521 1520 1519 1517 1515 1513 1510 1509 1507 1506
1527 1528 1530 1530 1531 1531 1533 1534 1535 1535 1536 1537 1537 1538 1539 1540 1541 1541 1542 1542 1543 1543 1543 1544 1545 1545 1546 1547 1547 1547 1546 1546 1546 1546 1546 1546 1546 1547 1547 1547 1548 1548 1549 1549 1550 1551 1551 1552 1552 1552 1552 1551 1551 1551 1549 1548 1547 1546 1545 1544 1542 1541 1540 1538 1536 1534 1532 1530 1528 1526 1523 1522 1522 1521 1519 1518 1517 1516 1515 1513 1510 1508 1505 1504 1503
1526 1528 1529 1531 1531 1532 1533 1534 1535 1535 1535 1536 1537 1538 1539 1540 1540 1541 1542 1542 1543 1544 1544 1544 1545 1545 1545 1546 1547 1547 1546 1546 1546 1546 1545 1545 1545 1545 1546 1546 1546 1547 1547 1547 1548 1549 1549 1550 1550 1550 1549 1549 1549 1548 1547 1546 1545 1543 1542 1541 1540 1538 1536 1534 1533 1531 1530 1529 1528 1526 1523 1521 1521 1519 1517 1516 1515 1513 1512 1511 1508 1506 1503 1501 1500
1526 1528 1529 1530 1531 1532 1533 1533 1534 1534 1535 1536 1537 1538 1539 1539 1540 1541 1542 1543 1544 1544 1544 1544 1544 1544 1545 1546 1546 1546 1545 1545 1545 1545 1545 1544 1545 1545 1546 1546 1546 1545 1545 1546 1547 1547 1548 1548 1547 1547 1547 1547 1546 1545 1545 1544 1542 1541 1540 1538 1537 1536 1534 1533 1531 1531 1530 1529 1528 1526 1523 1520 1519 1517 1515 1514 1513 1511 1509 1508 1506 1504 1502 1499 1498
1527 1528 1529 1530 1531 1532 1533 1533 1533 1534 1535 1536 1537 1538 1538 1539 1540 1541 1542 1543 1543 1543 1544 1543 1543 1543 1544 1545 1545 1544 1544 1544 1544 1544 1544 1545 1546 1546 1546 1546 1546 1545 1545 1545 1546 1546 1546 1546 1546 1545 1545 1544 1544 1543 1542 1541 1540 1539 1537 1536 1535 1534 1533 1532 1531 1529 1528 1527 1526 1524 1521 1519 1518 1516 1514 1512 1510 1508 1506 1505 1504 1502 1500 1497 1496
1528 1529 1530 1531 1531 1532 1532 1533 1533 1533 1534 1536 1536 1537 1538 1538 1539 1540 1542 1543 1543 1543 1544 1543 1542 1542 1543 1543 1543 1543 1543 1544 1544 1544 1544 1544 1545 1546 1546 1546 1546 1546 1544 1544 1544 1544 1544 1544 1543 1543 1542 1542 1541 1540 1539 1538 1537 1536 1535 1534 1533 1532 1531 1530 1529 1527 1526 1525 1523 1520 1519 1517 1516 1515 1512 1509 1507 1506 1505 1503 1501 1499 1497 1496 1494
1528 1529 1530 1531 1532 1532 1531 1532 1532 1533 1534 1534 1535 1536 1537 1538 1539 1539 1541 1542 1542 1543 1543 1543 1542 1541 1542 1543 1542 1542 1542 1543 1543 1543 1544 1544 1545 1546 1546 1545 1546 1545 1543 1542 1543 1543 1542 1541 1541 1540 1539 1538 1537 1536 1535 1534 1534 1533 1531 1530 1529 1529 1528 1528 1527 1525 1523 1522 1520 1517 1516 1515 1513 1513 1512 1508 1504 1502 1502 1501 1499 1497 1496 1495 1493